Flag for USA

Past Weather in Hutchinson, Kansas, USA — Yesterday and Last 2 Weeks

Now
77 °F

Partly sunny.


Feels Like: 78 °F
Forecast: 97 / 74 °F
Wind: 12 mph from East

Location: Hutchinson Municipal Airport

Current Time: Jul 2, 2020 at 8:28:32 am

Latest Report: Jul 2, 2020 at 7:32 am


Visibility: 10 mi

Pressure: 29.95 "Hg

Humidity: 88%

Dew Point: 73 °F

Location of HutchinsonLocation

Past Weather in Hutchinson — Graph

°F

Hutchinson Temperature Yesterday

Maximum temperature yesterday: 95 °F (at 4:52 pm)
Minimum temperature yesterday: 72 °F (at 7:00 am)
Average temperature yesterday: 85 °F

High & Low Weather Summary for the Past Weeks

 TemperatureHumidityPressure
High100 °F (Jun 30, 4:52 pm)94% (Jun 19, 7:29 am)30.07 "Hg (Jun 19, 7:29 am)
Low62 °F (Jun 23, 6:52 am)20% (Jun 23, 8:52 pm)29.51 "Hg (Jun 28, 2:52 pm)
Average79 °F64%29.79 "Hg
* Reported Jun 17 6:52 am — Jul 2 6:52 am, Hutchinson. Weather by CustomWeather, © 2020

Note: Actual official high and low records may vary slightly from our data, if they occured in-between our weather recording intervals... More about our weather records

Hutchinson Weather History for the Previous 24 Hours

Scroll right to see more
 ConditionsComfort  
Time TempWeatherWind HumidityBarometerVisibility
6:52 am
Thu, Jul 2
75 °FSunny.9 mph94%29.85 "Hg10 mi
5:52 am76 °FClear.6 mph91%29.83 "Hg10 mi
4:52 am77 °FClear.8 mph88%29.82 "Hg10 mi
3:52 am77 °FClear.9 mph88%29.83 "Hg10 mi
2:52 am78 °FPassing clouds.7 mph84%29.83 "Hg10 mi
1:52 am79 °FPassing clouds.9 mph82%29.82 "Hg10 mi
12:52 am81 °FClear.6 mph77%29.82 "Hg10 mi
11:52 pm
Wed, Jul 1
83 °FPassing clouds.10 mph70%29.80 "Hg10 mi
10:52 pm85 °FClear.8 mph65%29.80 "Hg10 mi
9:52 pm85 °FClear.8 mph65%29.78 "Hg10 mi
8:52 pm87 °FPassing clouds.8 mph61%29.76 "Hg10 mi
7:52 pm90 °FSunny.8 mph56%29.73 "Hg10 mi
6:52 pm93 °FSunny.10 mph47%29.73 "Hg10 mi
5:52 pm95 °FSunny.8 mph46%29.72 "Hg10 mi
4:52 pm95 °FPassing clouds.3 mph44%29.73 "Hg10 mi
3:52 pm92 °FScattered clouds.10 mph51%29.74 "Hg10 mi
2:52 pm91 °FBroken clouds.7 mph54%29.74 "Hg10 mi
1:52 pm91 °FPassing clouds.12 mph56%29.74 "Hg10 mi
12:52 pm89 °FMostly cloudy.13 mph59%29.75 "Hg10 mi
11:52 am88 °FPartly sunny.13 mph61%29.73 "Hg10 mi
11:34 am86 °FPartly sunny.9 mph63%29.81 "Hg10 mi
10:59 am86 °FPartly sunny.9 mph63%29.80 "Hg10 mi
9:52 am84 °FSunny.9 mph72%29.70 "Hg10 mi
8:52 am81 °FSunny.10 mph79%29.68 "Hg8 mi
Weather by CustomWeather, © 2020

See weather overview